Donnes mto: Actuelle dimanche, 19/05/2019 23:05
Date Horaire Temp. E. Hum. E. P.atmo. Pluie Vent Direction Direction Ensoleilleme Ev.Tr. Solaire P. de rose Temp au vent Rafales
19/05/2019 23:05 10,5 C 94 % 1012,8 hPa 0,0 mm 0,0 km/h (0 Bft) NO 305 0 min 0,000 mm 0 W/m 9,6 C 10,5 C 0,0 km/h (0 Bft)
19/05/2019 23:00 10,6 C 94 % 1012,8 hPa 0,0 mm 0,1 km/h (0 Bft) NO 306 0 min 0,000 mm 0 W/m 9,7 C 10,6 C 1,6 km/h (1 Bft)
19/05/2019 22:55 10,7 C 94 % 1012,7 hPa 0,0 mm 0,3 km/h (0 Bft) NO 305 0 min 0,000 mm 0 W/m 9,8 C 10,7 C 3,2 km/h (1 Bft)
19/05/2019 22:50 10,8 C 94 % 1012,7 hPa 0,0 mm 0,0 km/h (0 Bft) O-SO 251 0 min 0,000 mm 0 W/m 9,9 C 10,8 C 1,6 km/h (1 Bft)
19/05/2019 22:45 10,9 C 94 % 1012,6 hPa 0,0 mm 0,3 km/h (0 Bft) O-SO 245 0 min 0,000 mm 0 W/m 10,0 C 10,9 C 3,2 km/h (1 Bft)
19/05/2019 22:40 10,9 C 94 % 1012,5 hPa 0,0 mm 0,0 km/h (0 Bft) O-NO 287 0 min 0,000 mm 0 W/m 10,0 C 10,9 C 1,6 km/h (1 Bft)
19/05/2019 22:35 11,1 C 94 % 1012,4 hPa 0,0 mm 0,3 km/h (0 Bft) O-NO 290 0 min 0,000 mm 0 W/m 10,2 C 11,1 C 6,4 km/h (2 Bft)
19/05/2019 22:30 11,2 C 94 % 1012,4 hPa 0,0 mm 0,6 km/h (0 Bft) O 274 0 min 0,000 mm 0 W/m 10,3 C 11,2 C 4,8 km/h (1 Bft)
19/05/2019 22:25 11,3 C 94 % 1012,3 hPa 0,0 mm 1,4 km/h (1 Bft) NO 307 0 min 0,000 mm 0 W/m 10,4 C 11,3 C 8,0 km/h (2 Bft)
19/05/2019 22:20 11,4 C 94 % 1012,2 hPa 0,0 mm 1,6 km/h (1 Bft) NO 324 0 min 0,000 mm 0 W/m 10,5 C 11,4 C 8,0 km/h (2 Bft)
19/05/2019 22:15 11,5 C 95 % 1012,1 hPa 0,0 mm 2,1 km/h (1 Bft) NO 304 0 min 0,000 mm 0 W/m 10,7 C 11,5 C 9,7 km/h (2 Bft)
19/05/2019 22:10 11,6 C 94 % 1012,1 hPa 0,0 mm 2,8 km/h (1 Bft) SO 216 0 min 0,000 mm 0 W/m 10,7 C 11,6 C 9,7 km/h (2 Bft)
19/05/2019 22:05 11,8 C 95 % 1012,0 hPa 0,0 mm 1,0 km/h (0 Bft) O-SO 237 0 min 0,000 mm 0 W/m 11,0 C 11,8 C 8,0 km/h (2 Bft)
19/05/2019 22:00 12,0 C 95 % 1012,0 hPa 0,0 mm 2,7 km/h (1 Bft) O 275 0 min 0,000 mm 0 W/m 11,2 C 12,0 C 8,0 km/h (2 Bft)
19/05/2019 21:55 12,2 C 95 % 1011,9 hPa 0,0 mm 0,8 km/h (0 Bft) N-NO 334 0 min 0,000 mm 0 W/m 11,4 C 12,2 C 6,4 km/h (2 Bft)
19/05/2019 21:50 12,3 C 95 % 1011,9 hPa 0,0 mm 0,3 km/h (0 Bft) O-NO 290 0 min 0,000 mm 0 W/m 11,5 C 12,3 C 3,2 km/h (1 Bft)
19/05/2019 21:45 12,3 C 95 % 1011,7 hPa 0,0 mm 0,8 km/h (0 Bft) NO 307 0 min 0,000 mm 0 W/m 11,5 C 12,3 C 6,4 km/h (2 Bft)
19/05/2019 21:40 12,4 C 95 % 1011,7 hPa 0,0 mm 1,7 km/h (1 Bft) O-NO 302 0 min 0,000 mm 0 W/m 11,6 C 12,4 C 11,3 km/h (2 Bft)
19/05/2019 21:35 12,4 C 95 % 1011,6 hPa 0,0 mm 1,5 km/h (1 Bft) O-NO 292 0 min 0,000 mm 0 W/m 11,6 C 12,4 C 9,7 km/h (2 Bft)
19/05/2019 21:30 12,5 C 95 % 1011,5 hPa 0,0 mm 1,0 km/h (0 Bft) NO 310 0 min 0,000 mm 0 W/m 11,7 C 12,5 C 6,4 km/h (2 Bft)
19/05/2019 21:25 12,6 C 95 % 1011,4 hPa 0,0 mm 1,0 km/h (0 Bft) NO 312 0 min 0,000 mm 11 W/m 11,8 C 12,6 C 8,0 km/h (2 Bft)
19/05/2019 21:20 12,6 C 95 % 1011,4 hPa 0,0 mm 0,8 km/h (0 Bft) NO 311 0 min 0,000 mm 16 W/m 11,8 C 12,6 C 6,4 km/h (2 Bft)
19/05/2019 21:15 12,7 C 95 % 1011,3 hPa 0,0 mm 1,1 km/h (1 Bft) NO 308 0 min 0,000 mm 13 W/m 11,9 C 12,7 C 6,4 km/h (2 Bft)
19/05/2019 21:10 12,7 C 94 % 1011,3 hPa 0,0 mm 2,7 km/h (1 Bft) O-SO 247 0 min 0,000 mm 32 W/m 11,8 C 12,7 C 9,7 km/h (2 Bft)
19/05/2019 21:05 12,7 C 94 % 1011,2 hPa 0,0 mm 0,4 km/h (0 Bft) O-SO 247 0 min 0,026 mm 40 W/m 11,8 C 12,7 C 3,2 km/h (1 Bft)
19/05/2019 21:00 12,6 C 94 % 1011,2 hPa 0,0 mm 2,2 km/h (1 Bft) O-SO 245 0 min 0,000 mm 46 W/m 11,7 C 12,6 C 8,0 km/h (2 Bft)
19/05/2019 20:55 12,6 C 94 % 1011,2 hPa 0,0 mm 2,6 km/h (1 Bft) O-SO 237 0 min 0,000 mm 53 W/m 11,7 C 12,6 C 9,7 km/h (2 Bft)
19/05/2019 20:50 12,6 C 94 % 1011,2 hPa 0,0 mm 1,0 km/h (0 Bft) O-SO 244 0 min 0,000 mm 58 W/m 11,7 C 12,6 C 9,7 km/h (2 Bft)
19/05/2019 20:45 12,5 C 94 % 1011,1 hPa 0,0 mm 0,7 km/h (0 Bft) SO 235 0 min 0,000 mm 58 W/m 11,6 C 12,5 C 6,4 km/h (2 Bft)
19/05/2019 20:40 12,5 C 94 % 1011,1 hPa 0,0 mm 4,1 km/h (1 Bft) SO 235 0 min 0,000 mm 51 W/m 11,6 C 12,5 C 9,7 km/h (2 Bft)
19/05/2019 20:35 12,5 C 94 % 1011,1 hPa 0,0 mm 1,2 km/h (1 Bft) SO 234 0 min 0,000 mm 39 W/m 11,6 C 12,5 C 6,4 km/h (2 Bft)
19/05/2019 20:30 12,5 C 94 % 1011,1 hPa 0,0 mm 3,2 km/h (1 Bft) O-SO 253 0 min 0,000 mm 49 W/m 11,6 C 12,5 C 11,3 km/h (2 Bft)
19/05/2019 20:25 12,4 C 93 % 1011,0 hPa 0,0 mm 2,5 km/h (1 Bft) O-NO 293 0 min 0,000 mm 35 W/m 11,3 C 12,4 C 9,7 km/h (2 Bft)
19/05/2019 20:20 12,4 C 93 % 1010,9 hPa 0,0 mm 3,1 km/h (1 Bft) O 266 0 min 0,000 mm 23 W/m 11,3 C 12,4 C 11,3 km/h (2 Bft)
19/05/2019 20:15 12,5 C 93 % 1010,9 hPa 0,0 mm 4,0 km/h (1 Bft) O-NO 296 0 min 0,000 mm 16 W/m 11,4 C 12,5 C 11,3 km/h (2 Bft)
19/05/2019 20:10 12,6 C 92 % 1010,9 hPa 0,0 mm 2,9 km/h (1 Bft) SO 235 0 min 0,000 mm 14 W/m 11,3 C 12,6 C 12,9 km/h (3 Bft)
19/05/2019 20:05 12,7 C 92 % 1010,9 hPa 0,0 mm 2,3 km/h (1 Bft) NO 306 0 min 0,025 mm 12 W/m 11,4 C 12,7 C 8,0 km/h (2 Bft)
19/05/2019 20:00 12,8 C 92 % 1010,8 hPa 0,0 mm 5,1 km/h (1 Bft) O-NO 299 0 min 0,000 mm 12 W/m 11,5 C 12,8 C 12,9 km/h (3 Bft)
19/05/2019 19:55 12,9 C 91 % 1010,8 hPa 0,0 mm 5,8 km/h (2 Bft) O-NO 291 0 min 0,000 mm 12 W/m 11,5 C 12,9 C 14,5 km/h (3 Bft)
19/05/2019 19:50 13,1 C 91 % 1010,7 hPa 0,0 mm 4,1 km/h (1 Bft) O-NO 288 0 min 0,000 mm 12 W/m 11,7 C 13,1 C 16,1 km/h (3 Bft)
19/05/2019 19:45 13,2 C 91 % 1010,7 hPa 0,0 mm 5,5 km/h (1 Bft) SO 222 0 min 0,000 mm 14 W/m 11,8 C 13,2 C 14,5 km/h (3 Bft)
19/05/2019 19:40 13,4 C 91 % 1010,7 hPa 0,0 mm 3,7 km/h (1 Bft) O 263 0 min 0,000 mm 18 W/m 12,0 C 13,4 C 11,3 km/h (2 Bft)
19/05/2019 19:35 13,6 C 91 % 1010,6 hPa 0,0 mm 5,1 km/h (1 Bft) O-NO 289 0 min 0,000 mm 19 W/m 12,2 C 13,6 C 11,3 km/h (2 Bft)
19/05/2019 19:30 13,8 C 91 % 1010,5 hPa 0,0 mm 4,4 km/h (1 Bft) O 275 0 min 0,000 mm 21 W/m 12,4 C 13,8 C 12,9 km/h (3 Bft)
19/05/2019 19:25 14,0 C 92 % 1010,5 hPa 0,0 mm 5,4 km/h (1 Bft) O 281 0 min 0,000 mm 35 W/m 12,7 C 14,0 C 11,3 km/h (2 Bft)
19/05/2019 19:20 14,1 C 92 % 1010,4 hPa 0,0 mm 4,7 km/h (1 Bft) O-SO 243 0 min 0,000 mm 60 W/m 12,8 C 14,1 C 12,9 km/h (3 Bft)
19/05/2019 19:15 14,1 C 93 % 1010,4 hPa 0,0 mm 4,4 km/h (1 Bft) SO 233 0 min 0,000 mm 102 W/m 13,0 C 14,1 C 9,7 km/h (2 Bft)
19/05/2019 19:10 13,8 C 93 % 1010,4 hPa 0,0 mm 4,4 km/h (1 Bft) SO 236 0 min 0,000 mm 98 W/m 12,7 C 13,8 C 11,3 km/h (2 Bft)
19/05/2019 19:05 13,8 C 93 % 1010,3 hPa 0,0 mm 3,3 km/h (1 Bft) O-SO 239 0 min 0,000 mm 65 W/m 12,7 C 13,8 C 9,7 km/h (2 Bft)
19/05/2019 19:00 13,8 C 93 % 1010,4 hPa 0,0 mm 3,3 km/h (1 Bft) O-SO 258 0 min 0,051 mm 86 W/m 12,7 C 13,8 C 9,7 km/h (2 Bft)
19/05/2019 18:55 13,7 C 93 % 1010,4 hPa 0,0 mm 3,8 km/h (1 Bft) O-SO 251 0 min 0,000 mm 97 W/m 12,6 C 13,7 C 9,7 km/h (2 Bft)
19/05/2019 18:50 13,6 C 93 % 1010,3 hPa 0,0 mm 6,3 km/h (2 Bft) O-NO 301 0 min 0,000 mm 102 W/m 12,5 C 13,6 C 12,9 km/h (3 Bft)
19/05/2019 18:45 13,6 C 93 % 1010,3 hPa 0,0 mm 4,1 km/h (1 Bft) O-SO 242 0 min 0,000 mm 105 W/m 12,5 C 13,6 C 11,3 km/h (2 Bft)
19/05/2019 18:40 13,5 C 93 % 1010,4 hPa 0,0 mm 5,1 km/h (1 Bft) SO 235 0 min 0,000 mm 100 W/m 12,4 C 13,5 C 9,7 km/h (2 Bft)
19/05/2019 18:35 13,4 C 93 % 1010,3 hPa 0,0 mm 7,5 km/h (2 Bft) O-SO 243 0 min 0,000 mm 97 W/m 12,3 C 13,4 C 14,5 km/h (3 Bft)
19/05/2019 18:30 13,4 C 93 % 1010,4 hPa 0,0 mm 5,6 km/h (1 Bft) SO 222 0 min 0,000 mm 84 W/m 12,3 C 13,4 C 11,3 km/h (2 Bft)
19/05/2019 18:25 13,4 C 93 % 1010,4 hPa 0,0 mm 3,1 km/h (1 Bft) O-SO 247 0 min 0,000 mm 88 W/m 12,3 C 13,4 C 8,0 km/h (2 Bft)
19/05/2019 18:20 13,3 C 93 % 1010,5 hPa 0,0 mm 6,4 km/h (2 Bft) O-SO 242 0 min 0,000 mm 88 W/m 12,2 C 13,3 C 11,3 km/h (2 Bft)
19/05/2019 18:15 13,3 C 93 % 1010,5 hPa 0,0 mm 6,5 km/h (2 Bft) SO 236 0 min 0,000 mm 118 W/m 12,2 C 13,3 C 11,3 km/h (2 Bft)
19/05/2019 18:10 13,4 C 92 % 1010,6 hPa 0,0 mm 5,1 km/h (1 Bft) SO 232 0 min 0,000 mm 156 W/m 12,1 C 13,4 C 11,3 km/h (2 Bft)
19/05/2019 18:05 13,5 C 92 % 1010,5 hPa 0,0 mm 4,9 km/h (1 Bft) SO 230 0 min 0,000 mm 188 W/m 12,2 C 13,5 C 9,7 km/h (2 Bft)
19/05/2019 18:00 13,6 C 93 % 1010,5 hPa 0,0 mm 5,9 km/h (2 Bft) O-SO 243 0 min 0,127 mm 200 W/m 12,5 C 13,6 C 12,9 km/h (3 Bft)
19/05/2019 17:55 13,8 C 93 % 1010,6 hPa 0,0 mm 3,6 km/h (1 Bft) O-SO 249 0 min 0,000 mm 236 W/m 12,7 C 13,8 C 9,7 km/h (2 Bft)
19/05/2019 17:50 13,6 C 93 % 1010,6 hPa 0,0 mm 4,0 km/h (1 Bft) S-SO 206 0 min 0,000 mm 264 W/m 12,5 C 13,6 C 11,3 km/h (2 Bft)
19/05/2019 17:45 13,7 C 93 % 1010,6 hPa 0,0 mm 2,9 km/h (1 Bft) O-NO 287 0 min 0,000 mm 253 W/m 12,6 C 13,7 C 9,7 km/h (2 Bft)
19/05/2019 17:40 13,7 C 93 % 1010,6 hPa 0,0 mm 2,2 km/h (1 Bft) SO 231 0 min 0,000 mm 272 W/m 12,6 C 13,7 C 8,0 km/h (2 Bft)
19/05/2019 17:35 13,4 C 93 % 1010,6 hPa 0,0 mm 2,4 km/h (1 Bft) SO 225 0 min 0,000 mm 306 W/m 12,3 C 13,4 C 14,5 km/h (3 Bft)
19/05/2019 17:30 13,3 C 94 % 1010,6 hPa 0,0 mm 1,9 km/h (1 Bft) O-SO 251 5 min 0,000 mm 359 W/m 12,4 C 13,3 C 8,0 km/h (2 Bft)
19/05/2019 17:25 13,0 C 94 % 1010,6 hPa 0,0 mm 2,1 km/h (1 Bft) O 262 0 min 0,000 mm 345 W/m 12,1 C 13,0 C 8,0 km/h (2 Bft)
19/05/2019 17:20 12,7 C 94 % 1010,6 hPa 0,0 mm 3,4 km/h (1 Bft) SO 230 0 min 0,000 mm 322 W/m 11,8 C 12,7 C 9,7 km/h (2 Bft)
19/05/2019 17:15 12,7 C 95 % 1010,6 hPa 0,0 mm 2,1 km/h (1 Bft) O 279 0 min 0,000 mm 257 W/m 11,9 C 12,7 C 8,0 km/h (2 Bft)
19/05/2019 17:10 12,7 C 95 % 1010,6 hPa 0,0 mm 0,0 km/h (0 Bft) O 280 0 min 0,000 mm 234 W/m 11,9 C 12,7 C 0,0 km/h (0 Bft)
19/05/2019 17:05 12,6 C 95 % 1010,6 hPa 0,0 mm 0,0 km/h (0 Bft) O-SO 239 0 min 0,000 mm 190 W/m 11,8 C 12,6 C 0,0 km/h (0 Bft)
19/05/2019 17:00 12,4 C 95 % 1010,7 hPa 0,0 mm 0,2 km/h (0 Bft) O-SO 239 0 min 0,051 mm 174 W/m 11,6 C 12,4 C 1,6 km/h (1 Bft)
19/05/2019 16:55 12,2 C 95 % 1010,7 hPa 0,0 mm 1,3 km/h (1 Bft) O-SO 241 0 min 0,000 mm 178 W/m 11,4 C 12,2 C 6,4 km/h (2 Bft)
19/05/2019 16:50 12,1 C 95 % 1010,7 hPa 0,0 mm 0,8 km/h (0 Bft) O-SO 238 0 min 0,000 mm 178 W/m 11,3 C 12,1 C 6,4 km/h (2 Bft)
19/05/2019 16:45 12,1 C 94 % 1010,6 hPa 0,0 mm 0,6 km/h (0 Bft) SO 235 0 min 0,000 mm 155 W/m 11,2 C 12,1 C 8,0 km/h (2 Bft)
19/05/2019 16:40 11,8 C 94 % 1010,6 hPa 0,0 mm 0,3 km/h (0 Bft) O-SO 247 0 min 0,000 mm 127 W/m 10,9 C 11,8 C 6,4 km/h (2 Bft)
19/05/2019 16:35 11,7 C 94 % 1010,6 hPa 0,0 mm 0,3 km/h (0 Bft) O-SO 245 0 min 0,000 mm 113 W/m 10,8 C 11,7 C 3,2 km/h (1 Bft)
19/05/2019 16:30 11,6 C 93 % 1010,7 hPa 0,2 mm 0,2 km/h (0 Bft) O-SO 247 0 min 0,000 mm 95 W/m 10,5 C 11,6 C 3,2 km/h (1 Bft)
19/05/2019 16:25 11,5 C 93 % 1010,7 hPa 0,0 mm 0,8 km/h (0 Bft) O-SO 247 0 min 0,000 mm 81 W/m 10,4 C 11,5 C 4,8 km/h (1 Bft)
19/05/2019 16:20 11,5 C 92 % 1010,7 hPa 0,2 mm 1,1 km/h (1 Bft) O-SO 247 0 min 0,000 mm 69 W/m 10,2 C 11,5 C 3,2 km/h (1 Bft)
19/05/2019 16:15 11,5 C 92 % 1010,7 hPa 0,2 mm 1,8 km/h (1 Bft) O-SO 248 0 min 0,000 mm 69 W/m 10,2 C 11,5 C 9,7 km/h (2 Bft)
19/05/2019 16:10 11,6 C 91 % 1010,8 hPa 0,4 mm 1,2 km/h (1 Bft) O 273 0 min 0,000 mm 72 W/m 10,2 C 11,6 C 8,0 km/h (2 Bft)
19/05/2019 16:05 11,6 C 91 % 1010,7 hPa 0,4 mm 0,4 km/h (0 Bft) NO 325 0 min 0,000 mm 76 W/m 10,2 C 11,6 C 4,8 km/h (1 Bft)
19/05/2019 16:00 11,7 C 90 % 1010,7 hPa 0,6 mm 1,2 km/h (1 Bft) N 349 0 min 0,101 mm 81 W/m 10,1 C 11,7 C 4,8 km/h (1 Bft)
19/05/2019 15:55 11,8 C 89 % 1010,7 hPa 0,4 mm 2,1 km/h (1 Bft) NO 326 0 min 0,000 mm 81 W/m 10,0 C 11,8 C 11,3 km/h (2 Bft)
19/05/2019 15:50 12,0 C 88 % 1010,7 hPa 0,2 mm 2,1 km/h (1 Bft) O-NO 291 0 min 0,000 mm 72 W/m 10,1 C 12,0 C 12,9 km/h (3 Bft)
19/05/2019 15:45 12,3 C 85 % 1010,8 hPa 0,2 mm 3,5 km/h (1 Bft) O-NO 294 0 min 0,000 mm 63 W/m 9,9 C 12,3 C 12,9 km/h (3 Bft)
19/05/2019 15:40 13,0 C 82 % 1010,7 hPa 0,2 mm 3,4 km/h (1 Bft) NO 316 0 min 0,000 mm 46 W/m 10,0 C 13,0 C 12,9 km/h (3 Bft)
19/05/2019 15:35 14,0 C 78 % 1010,6 hPa 0,2 mm 6,6 km/h (2 Bft) O-NO 283 0 min 0,000 mm 37 W/m 10,2 C 14,0 C 17,7 km/h (3 Bft)
19/05/2019 15:30 15,1 C 75 % 1010,5 hPa 0,0 mm 5,8 km/h (2 Bft) N-NO 343 0 min 0,000 mm 35 W/m 10,7 C 15,1 C 32,2 km/h (5 Bft)
19/05/2019 15:25 15,6 C 73 % 1010,3 hPa 0,0 mm 5,7 km/h (1 Bft) O-NO 303 0 min 0,000 mm 105 W/m 10,8 C 15,6 C 11,3 km/h (2 Bft)
19/05/2019 15:20 16,1 C 75 % 1010,1 hPa 0,0 mm 0,8 km/h (0 Bft) O-NO 283 0 min 0,000 mm 229 W/m 11,7 C 16,1 C 8,0 km/h (2 Bft)
19/05/2019 15:15 15,9 C 76 % 1010,0 hPa 0,0 mm 0,3 km/h (0 Bft) O 266 5 min 0,000 mm 624 W/m 11,7 C 15,9 C 4,8 km/h (1 Bft)
19/05/2019 15:10 15,6 C 77 % 1010,1 hPa 0,0 mm 1,9 km/h (1 Bft) O 270 0 min 0,000 mm 417 W/m 11,6 C 15,6 C 6,4 km/h (2 Bft)
19/05/2019 15:05 15,3 C 76 % 1010,1 hPa 0,0 mm 2,1 km/h (1 Bft) NO 309 0 min 0,000 mm 360 W/m 11,1 C 15,3 C 9,7 km/h (2 Bft)
19/05/2019 15:00 15,1 C 78 % 1010,1 hPa 0,0 mm 0,3 km/h (0 Bft) NO 314 0 min 0,203 mm 327 W/m 11,3 C 15,1 C 3,2 km/h (1 Bft)
19/05/2019 14:55 14,9 C 79 % 1010,2 hPa 0,0 mm 1,2 km/h (1 Bft) NO 313 0 min 0,000 mm 209 W/m 11,3 C 14,9 C 6,4 km/h (2 Bft)
19/05/2019 14:50 14,9 C 77 % 1010,1 hPa 0,0 mm 3,1 km/h (1 Bft) O-NO 302 0 min 0,000 mm 144 W/m 10,9 C 14,9 C 9,7 km/h (2 Bft)
19/05/2019 14:45 15,3 C 77 % 1010,1 hPa 0,0 mm 0,2 km/h (0 Bft) NO 318 0 min 0,000 mm 146 W/m 11,3 C 15,3 C 6,4 km/h (2 Bft)
19/05/2019 14:40 15,6 C 78 % 1010,1 hPa 0,0 mm 0,5 km/h (0 Bft) O 271 0 min 0,000 mm 216 W/m 11,8 C 15,6 C 4,8 km/h (1 Bft)
19/05/2019 14:35 15,5 C 79 % 1010,1 hPa 0,0 mm 2,2 km/h (1 Bft) S-SO 211 0 min 0,000 mm 287 W/m 11,9 C 15,5 C 8,0 km/h (2 Bft)
19/05/2019 14:30 15,4 C 77 % 1010,2 hPa 0,0 mm 2,3 km/h (1 Bft) O 280 0 min 0,000 mm 448 W/m 11,4 C 15,4 C 11,3 km/h (2 Bft)
19/05/2019 14:25 15,6 C 80 % 1010,2 hPa 0,0 mm 3,2 km/h (1 Bft) O-SO 249 5 min 0,000 mm 1069 W/m 12,2 C 15,6 C 9,7 km/h (2 Bft)
19/05/2019 14:20 15,5 C 79 % 1010,2 hPa 0,0 mm 2,3 km/h (1 Bft) O-NO 299 0 min 0,000 mm 394 W/m 11,9 C 15,5 C 9,7 km/h (2 Bft)
19/05/2019 14:15 15,2 C 79 % 1010,2 hPa 0,0 mm 2,8 km/h (1 Bft) O 271 0 min 0,000 mm 468 W/m 11,6 C 15,2 C 9,7 km/h (2 Bft)
19/05/2019 14:10 15,0 C 81 % 1010,2 hPa 0,0 mm 2,7 km/h (1 Bft) SO 235 5 min 0,000 mm 1109 W/m 11,8 C 15,0 C 8,0 km/h (2 Bft)
19/05/2019 14:05 14,7 C 79 % 1010,3 hPa 0,0 mm 2,8 km/h (1 Bft) O-NO 291 0 min 0,000 mm 330 W/m 11,1 C 14,7 C 8,0 km/h (2 Bft)
19/05/2019 14:00 14,9 C 79 % 1010,2 hPa 0,0 mm 5,1 km/h (1 Bft) NO 321 0 min 0,331 mm 304 W/m 11,3 C 14,9 C 11,3 km/h (2 Bft)
19/05/2019 13:55 15,1 C 81 % 1010,2 hPa 0,0 mm 3,1 km/h (1 Bft) O-NO 283 0 min 0,000 mm 329 W/m 11,9 C 15,1 C 8,0 km/h (2 Bft)
19/05/2019 13:50 15,4 C 81 % 1010,3 hPa 0,0 mm 4,1 km/h (1 Bft) O-NO 299 5 min 0,000 mm 990 W/m 12,2 C 15,4 C 14,5 km/h (3 Bft)
19/05/2019 13:45 15,2 C 80 % 1010,3 hPa 0,0 mm 0,5 km/h (0 Bft) N-NE 14 0 min 0,000 mm 450 W/m 11,8 C 15,2 C 3,2 km/h (1 Bft)
19/05/2019 13:40 15,1 C 81 % 1010,3 hPa 0,0 mm 3,0 km/h (1 Bft) O-NO 297 5 min 0,000 mm 519 W/m 11,9 C 15,1 C 8,0 km/h (2 Bft)
19/05/2019 13:35 14,9 C 82 % 1010,3 hPa 0,0 mm 4,4 km/h (1 Bft) O-SO 244 5 min 0,000 mm 1032 W/m 11,9 C 14,9 C 9,7 km/h (2 Bft)
19/05/2019 13:30 14,5 C 82 % 1010,3 hPa 0,0 mm 3,3 km/h (1 Bft) O-NO 294 0 min 0,000 mm 364 W/m 11,5 C 14,5 C 11,3 km/h (2 Bft)
19/05/2019 13:25 14,3 C 83 % 1010,3 hPa 0,0 mm 2,6 km/h (1 Bft) O-NO 289 5 min 0,000 mm 548 W/m 11,5 C 14,3 C 9,7 km/h (2 Bft)
19/05/2019 13:20 14,0 C 84 % 1010,3 hPa 0,0 mm 5,2 km/h (1 Bft) O-SO 237 0 min 0,000 mm 403 W/m 11,3 C 14,0 C 12,9 km/h (3 Bft)
19/05/2019 13:15 14,0 C 83 % 1010,3 hPa 0,0 mm 3,9 km/h (1 Bft) NO 305 0 min 0,000 mm 302 W/m 11,2 C 14,0 C 9,7 km/h (2 Bft)
19/05/2019 13:10 14,4 C 87 % 1010,3 hPa 0,0 mm 3,0 km/h (1 Bft) O-NO 296 0 min 0,000 mm 338 W/m 12,3 C 14,4 C 11,3 km/h (2 Bft)
19/05/2019 13:05 13,5 C 87 % 1010,3 hPa 0,0 mm 1,0 km/h (0 Bft) NO 305 5 min 0,000 mm 503 W/m 11,4 C 13,5 C 6,4 km/h (2 Bft)
19/05/2019 13:00 13,3 C 86 % 1010,4 hPa 0,0 mm 4,1 km/h (1 Bft) O-NO 297 0 min 0,203 mm 390 W/m 11,0 C 13,3 C 9,7 km/h (2 Bft)
19/05/2019 12:55 13,4 C 87 % 1010,3 hPa 0,0 mm 1,0 km/h (0 Bft) O-NO 297 0 min 0,000 mm 443 W/m 11,3 C 13,4 C 9,7 km/h (2 Bft)
19/05/2019 12:50 13,1 C 88 % 1010,3 hPa 0,0 mm 2,6 km/h (1 Bft) NO 311 0 min 0,000 mm 468 W/m 11,2 C 13,1 C 9,7 km/h (2 Bft)
19/05/2019 12:45 13,3 C 89 % 1010,3 hPa 0,0 mm 2,7 km/h (1 Bft) O-NO 297 0 min 0,000 mm 308 W/m 11,5 C 13,3 C 8,0 km/h (2 Bft)
19/05/2019 12:40 13,3 C 89 % 1010,3 hPa 0,0 mm 2,2 km/h (1 Bft) O 276 5 min 0,000 mm 541 W/m 11,5 C 13,3 C 11,3 km/h (2 Bft)
19/05/2019 12:35 13,1 C 90 % 1010,4 hPa 0,0 mm 4,2 km/h (1 Bft) O 268 0 min 0,000 mm 367 W/m 11,5 C 13,1 C 9,7 km/h (2 Bft)
19/05/2019 12:30 13,1 C 91 % 1010,3 hPa 0,0 mm 3,2 km/h (1 Bft) O-NO 290 0 min 0,000 mm 454 W/m 11,7 C 13,1 C 11,3 km/h (2 Bft)
19/05/2019 12:25 13,1 C 92 % 1010,4 hPa 0,0 mm 4,1 km/h (1 Bft) O-NO 291 0 min 0,000 mm 376 W/m 11,8 C 13,1 C 9,7 km/h (2 Bft)
19/05/2019 12:20 12,8 C 93 % 1010,4 hPa 0,0 mm 4,8 km/h (1 Bft) O-SO 239 5 min 0,000 mm 531 W/m 11,7 C 12,8 C 11,3 km/h (2 Bft)
19/05/2019 12:15 12,4 C 93 % 1010,4 hPa 0,0 mm 4,7 km/h (1 Bft) O-NO 299 0 min 0,000 mm 429 W/m 11,3 C 12,4 C 9,7 km/h (2 Bft)
19/05/2019 12:10 12,5 C 94 % 1010,5 hPa 0,0 mm 3,6 km/h (1 Bft) O-NO 295 0 min 0,000 mm 388 W/m 11,6 C 12,5 C 11,3 km/h (2 Bft)
19/05/2019 12:05 12,2 C 94 % 1010,5 hPa 0,0 mm 3,6 km/h (1 Bft) SO 233 0 min 0,000 mm 327 W/m 11,3 C 12,2 C 9,7 km/h (2 Bft)
19/05/2019 12:00 12,2 C 95 % 1010,5 hPa 0,0 mm 2,7 km/h (1 Bft) SO 235 0 min 0,076 mm 302 W/m 11,4 C 12,2 C 8,0 km/h (2 Bft)
19/05/2019 11:55 11,9 C 96 % 1010,5 hPa 0,0 mm 3,8 km/h (1 Bft) O-NO 295 0 min 0,000 mm 225 W/m 11,3 C 11,9 C 9,7 km/h (2 Bft)
19/05/2019 11:50 11,8 C 96 % 1010,4 hPa 0,0 mm 3,1 km/h (1 Bft) SO 231 0 min 0,000 mm 287 W/m 11,2 C 11,8 C 11,3 km/h (2 Bft)
19/05/2019 11:45 11,8 C 96 % 1010,4 hPa 0,0 mm 0,7 km/h (0 Bft) O-NO 295 0 min 0,000 mm 239 W/m 11,2 C 11,8 C 8,0 km/h (2 Bft)
19/05/2019 11:40 11,6 C 96 % 1010,4 hPa 0,0 mm 1,3 km/h (1 Bft) O-NO 285 0 min 0,000 mm 135 W/m 11,0 C 11,6 C 6,4 km/h (2 Bft)
19/05/2019 11:35 11,5 C 96 % 1010,4 hPa 0,0 mm 2,8 km/h (1 Bft) O-NO 303 0 min 0,000 mm 183 W/m 10,9 C 11,5 C 8,0 km/h (2 Bft)
19/05/2019 11:30 11,6 C 96 % 1010,4 hPa 0,0 mm 0,3 km/h (0 Bft) O-SO 258 0 min 0,000 mm 144 W/m 11,0 C 11,6 C 3,2 km/h (1 Bft)
19/05/2019 11:25 11,4 C 96 % 1010,4 hPa 0,0 mm 1,8 km/h (1 Bft) O-NO 301 0 min 0,000 mm 142 W/m 10,8 C 11,4 C 6,4 km/h (2 Bft)
19/05/2019 11:20 11,4 C 96 % 1010,4 hPa 0,0 mm 2,7 km/h (1 Bft) O 265 0 min 0,000 mm 128 W/m 10,8 C 11,4 C 9,7 km/h (2 Bft)
19/05/2019 11:15 11,4 C 96 % 1010,3 hPa 0,0 mm 1,6 km/h (1 Bft) O-SO 248 0 min 0,000 mm 102 W/m 10,8 C 11,4 C 8,0 km/h (2 Bft)
19/05/2019 11:10 11,3 C 96 % 1010,3 hPa 0,0 mm 1,0 km/h (0 Bft) NO 314 0 min 0,000 mm 125 W/m 10,7 C 11,3 C 6,4 km/h (2 Bft)
19/05/2019 11:05 11,3 C 96 % 1010,2 hPa 0,0 mm 2,1 km/h (1 Bft) NO 318 0 min 0,000 mm 125 W/m 10,7 C 11,3 C 9,7 km/h (2 Bft)
19/05/2019 11:00 11,3 C 97 % 1010,3 hPa 0,0 mm 0,2 km/h (0 Bft) O 278 0 min 0,051 mm 102 W/m 10,8 C 11,3 C 3,2 km/h (1 Bft)
19/05/2019 10:55 11,2 C 97 % 1010,3 hPa 0,0 mm 2,2 km/h (1 Bft) O-NO 292 0 min 0,000 mm 102 W/m 10,7 C 11,2 C 9,7 km/h (2 Bft)
19/05/2019 10:50 11,2 C 97 % 1010,2 hPa 0,0 mm 1,1 km/h (1 Bft) O-NO 293 0 min 0,000 mm 109 W/m 10,7 C 11,2 C 8,0 km/h (2 Bft)
19/05/2019 10:45 11,2 C 97 % 1010,2 hPa 0,0 mm 2,8 km/h (1 Bft) O-SO 251 0 min 0,000 mm 109 W/m 10,7 C 11,2 C 9,7 km/h (2 Bft)
19/05/2019 10:40 11,1 C 97 % 1010,2 hPa 0,0 mm 0,8 km/h (0 Bft) O-NO 294 0 min 0,000 mm 91 W/m 10,6 C 11,1 C 8,0 km/h (2 Bft)
19/05/2019 10:35 11,2 C 97 % 1010,2 hPa 0,0 mm 1,5 km/h (1 Bft) O 270 0 min 0,000 mm 91 W/m 10,7 C 11,2 C 8,0 km/h (2 Bft)
19/05/2019 10:30 11,2 C 97 % 1010,1 hPa 0,0 mm 2,9 km/h (1 Bft) O-NO 300 0 min 0,000 mm 120 W/m 10,7 C 11,2 C 9,7 km/h (2 Bft)
19/05/2019 10:25 11,2 C 97 % 1010,1 hPa 0,0 mm 3,0 km/h (1 Bft) O-NO 297 0 min 0,000 mm 102 W/m 10,7 C 11,2 C 9,7 km/h (2 Bft)
19/05/2019 10:20 11,1 C 97 % 1010,1 hPa 0,0 mm 4,1 km/h (1 Bft) SO 215 0 min 0,000 mm 98 W/m 10,6 C 11,1 C 9,7 km/h (2 Bft)
19/05/2019 10:15 11,2 C 97 % 1010,1 hPa 0,0 mm 1,1 km/h (1 Bft) O-NO 291 0 min 0,000 mm 111 W/m 10,7 C 11,2 C 8,0 km/h (2 Bft)
19/05/2019 10:10 11,1 C 97 % 1010,0 hPa 0,0 mm 0,2 km/h (0 Bft) O-NO 287 0 min 0,000 mm 137 W/m 10,6 C 11,1 C 4,8 km/h (1 Bft)
19/05/2019 10:05 11,1 C 97 % 1010,0 hPa 0,0 mm 2,1 km/h (1 Bft) O-SO 245 0 min 0,000 mm 118 W/m 10,6 C 11,1 C 8,0 km/h (2 Bft)
19/05/2019 10:00 11,1 C 97 % 1010,1 hPa 0,0 mm 2,2 km/h (1 Bft) O-SO 241 0 min 0,051 mm 107 W/m 10,6 C 11,1 C 6,4 km/h (2 Bft)
19/05/2019 09:55 11,0 C 97 % 1010,0 hPa 0,0 mm 0,0 km/h (0 Bft) SO 233 0 min 0,000 mm 100 W/m 10,5 C 11,0 C 0,0 km/h (0 Bft)
19/05/2019 09:50 11,0 C 98 % 1010,0 hPa 0,0 mm 0,8 km/h (0 Bft) SO 226 0 min 0,000 mm 97 W/m 10,7 C 11,0 C 6,4 km/h (2 Bft)
19/05/2019 09:45 11,0 C 98 % 1009,9 hPa 0,0 mm 0,9 km/h (0 Bft) O 261 0 min 0,000 mm 109 W/m 10,7 C 11,0 C 4,8 km/h (1 Bft)
19/05/2019 09:40 10,9 C 97 % 1009,9 hPa 0,0 mm 1,5 km/h (1 Bft) SO 234 0 min 0,000 mm 81 W/m 10,4 C 10,9 C 8,0 km/h (2 Bft)
19/05/2019 09:35 10,8 C 98 % 1009,9 hPa 0,0 mm 1,2 km/h (1 Bft) O-SO 247 0 min 0,000 mm 63 W/m 10,5 C 10,8 C 6,4 km/h (2 Bft)
19/05/2019 09:30 10,8 C 98 % 1009,9 hPa 0,0 mm 0,5 km/h (0 Bft) O-SO 246 0 min 0,000 mm 104 W/m 10,5 C 10,8 C 6,4 km/h (2 Bft)
19/05/2019 09:25 10,7 C 98 % 1009,8 hPa 0,0 mm 2,1 km/h (1 Bft) O-SO 256 0 min 0,000 mm 79 W/m 10,4 C 10,7 C 6,4 km/h (2 Bft)
19/05/2019 09:20 10,7 C 98 % 1009,9 hPa 0,0 mm 0,4 km/h (0 Bft) O-SO 249 0 min 0,000 mm 100 W/m 10,4 C 10,7 C 3,2 km/h (1 Bft)
19/05/2019 09:15 10,7 C 98 % 1009,9 hPa 0,0 mm 0,2 km/h (0 Bft) O-SO 256 0 min 0,000 mm 76 W/m 10,4 C 10,7 C 4,8 km/h (1 Bft)
19/05/2019 09:10 10,7 C 98 % 1009,8 hPa 0,0 mm 0,0 km/h (0 Bft) O-SO 253 0 min 0,000 mm 76 W/m 10,4 C 10,7 C 0,0 km/h (0 Bft)
19/05/2019 09:05 10,7 C 98 % 1009,8 hPa 0,0 mm 0,0 km/h (0 Bft) O-SO 239 0 min 0,000 mm 77 W/m 10,4 C 10,7 C 0,0 km/h (0 Bft)
19/05/2019 09:00 10,7 C 98 % 1009,7 hPa 0,0 mm 0,0 km/h (0 Bft) SO 225 0 min 0,025 mm 62 W/m 10,4 C 10,7 C 0,0 km/h (0 Bft)
19/05/2019 08:55 10,6 C 98 % 1009,8 hPa 0,0 mm 0,0 km/h (0 Bft) SO 224 0 min 0,000 mm 62 W/m 10,3 C 10,6 C 0,0 km/h (0 Bft)
19/05/2019 08:50 10,6 C 98 % 1009,7 hPa 0,0 mm 0,0 km/h (0 Bft) SO 223 0 min 0,000 mm 77 W/m 10,3 C 10,6 C 0,0 km/h (0 Bft)
19/05/2019 08:45 10,6 C 98 % 1009,7 hPa 0,0 mm 0,0 km/h (0 Bft) SO 224 0 min 0,000 mm 104 W/m 10,3 C 10,6 C 0,0 km/h (0 Bft)
19/05/2019 08:40 10,6 C 98 % 1009,7 hPa 0,0 mm 0,0 km/h (0 Bft) SO 236 0 min 0,000 mm 109 W/m 10,3 C 10,6 C 0,0 km/h (0 Bft)
19/05/2019 08:35 10,4 C 98 % 1009,7 hPa 0,0 mm 0,0 km/h (0 Bft) SO 236 0 min 0,000 mm 100 W/m 10,1 C 10,4 C 0,0 km/h (0 Bft)
19/05/2019 08:30 10,4 C 98 % 1009,7 hPa 0,0 mm 0,0 km/h (0 Bft) SO 235 0 min 0,000 mm 90 W/m 10,1 C 10,4 C 0,0 km/h (0 Bft)
19/05/2019 08:25 10,3 C 98 % 1009,7 hPa 0,0 mm 0,0 km/h (0 Bft) SO 235 0 min 0,000 mm 72 W/m 10,0 C 10,3 C 0,0 km/h (0 Bft)
19/05/2019 08:20 10,3 C 98 % 1009,7 hPa 0,0 mm 0,0 km/h (0 Bft) SO 236 0 min 0,000 mm 58 W/m 10,0 C 10,3 C 0,0 km/h (0 Bft)
19/05/2019 08:15 10,3 C 98 % 1009,6 hPa 0,0 mm 0,0 km/h (0 Bft) O-SO 251 0 min 0,000 mm 35 W/m 10,0 C 10,3 C 0,0 km/h (0 Bft)
19/05/2019 08:10 10,3 C 98 % 1009,6 hPa 0,0 mm 0,0 km/h (0 Bft) O-SO 252 0 min 0,000 mm 30 W/m 10,0 C 10,3 C 0,0 km/h (0 Bft)
19/05/2019 08:05 10,3 C 98 % 1009,6 hPa 0,0 mm 0,0 km/h (0 Bft) O-SO 251 0 min 0,000 mm 42 W/m 10,0 C 10,3 C 0,0 km/h (0 Bft)
19/05/2019 08:00 10,3 C 98 % 1009,6 hPa 0,0 mm 0,0 km/h (0 Bft) O-SO 251 0 min 0,000 mm 30 W/m 10,0 C 10,3 C 0,0 km/h (0 Bft)
19/05/2019 07:55 10,3 C 98 % 1009,7 hPa 0,0 mm 0,0 km/h (0 Bft) O-SO 253 0 min 0,000 mm 26 W/m 10,0 C 10,3 C 0,0 km/h (0 Bft)
19/05/2019 07:50 10,3 C 98 % 1009,6 hPa 0,0 mm 0,0 km/h (0 Bft) O-SO 251 0 min 0,000 mm 33 W/m 10,0 C 10,3 C 0,0 km/h (0 Bft)
19/05/2019 07:45 10,2 C 98 % 1009,5 hPa 0,0 mm 0,0 km/h (0 Bft) O-SO 250 0 min 0,000 mm 53 W/m 9,9 C 10,2 C 0,0 km/h (0 Bft)
19/05/2019 07:40 10,2 C 98 % 1009,5 hPa 0,0 mm 0,0 km/h (0 Bft) O-SO 249 0 min 0,000 mm 37 W/m 9,9 C 10,2 C 0,0 km/h (0 Bft)
19/05/2019 07:35 10,1 C 98 % 1009,6 hPa 0,0 mm 0,0 km/h (0 Bft) O-SO 251 0 min 0,000 mm 39 W/m 9,8 C 10,1 C 0,0 km/h (0 Bft)
19/05/2019 07:30 10,1 C 98 % 1009,5 hPa 0,0 mm 0,0 km/h (0 Bft) O-SO 251 0 min 0,000 mm 32 W/m 9,8 C 10,1 C 0,0 km/h (0 Bft)
19/05/2019 07:25 10,1 C 98 % 1009,5 hPa 0,0 mm 0,0 km/h (0 Bft) O-SO 251 0 min 0,000 mm 18 W/m 9,8 C 10,1 C 0,0 km/h (0 Bft)
19/05/2019 07:20 10,1 C 98 % 1009,4 hPa 0,0 mm 0,0 km/h (0 Bft) O-SO 251 0 min 0,000 mm 9 W/m 9,8 C 10,1 C 0,0 km/h (0 Bft)
19/05/2019 07:15 10,1 C 98 % 1009,4 hPa 0,0 mm 0,0 km/h (0 Bft) O-SO 251 0 min 0,000 mm 7 W/m 9,8 C 10,1 C 0,0 km/h (0 Bft)
19/05/2019 07:10 10,1 C 98 % 1009,4 hPa 0,0 mm 0,0 km/h (0 Bft) O-SO 249 0 min 0,000 mm 7 W/m 9,8 C 10,1 C 0,0 km/h (0 Bft)
19/05/2019 07:05 10,1 C 98 % 1009,4 hPa 0,0 mm 0,0 km/h (0 Bft) O-SO 250 0 min 0,000 mm 7 W/m 9,8 C 10,1 C 0,0 km/h (0 Bft)
19/05/2019 07:00 10,1 C 98 % 1009,3 hPa 0,0 mm 0,0 km/h (0 Bft) O-SO 250 0 min 0,000 mm 7 W/m 9,8 C 10,1 C 0,0 km/h (0 Bft)
19/05/2019 06:55 10,1 C 98 % 1009,3 hPa 0,0 mm 0,0 km/h (0 Bft) O-SO 251 0 min 0,000 mm 7 W/m 9,8 C 10,1 C 0,0 km/h (0 Bft)
19/05/2019 06:50 10,1 C 97 % 1009,3 hPa 0,0 mm 0,0 km/h (0 Bft) O-SO 249 0 min 0,000 mm 5 W/m 9,6 C 10,1 C 0,0 km/h (0 Bft)
19/05/2019 06:45 10,1 C 98 % 1009,3 hPa 0,0 mm 0,0 km/h (0 Bft) SO 236 0 min 0,000 mm 0 W/m 9,8 C 10,1 C 0,0 km/h (0 Bft)
19/05/2019 06:40 10,1 C 98 % 1009,3 hPa 0,0 mm 0,0 km/h (0 Bft) O-SO 252 0 min 0,000 mm 0 W/m 9,8 C 10,1 C 0,0 km/h (0 Bft)
19/05/2019 06:35 10,1 C 98 % 1009,3 hPa 0,0 mm 0,0 km/h (0 Bft) O-SO 249 0 min 0,000 mm 0 W/m 9,8 C 10,1 C 0,0 km/h (0 Bft)
19/05/2019 06:30 10,0 C 98 % 1009,3 hPa 0,0 mm 0,0 km/h (0 Bft) O 280 0 min 0,000 mm 0 W/m 9,7 C 10,0 C 0,0 km/h (0 Bft)
19/05/2019 06:25 10,0 C 97 % 1009,2 hPa 0,0 mm 0,0 km/h (0 Bft) O-NO 282 0 min 0,000 mm 0 W/m 9,5 C 10,0 C 0,0 km/h (0 Bft)
19/05/2019 06:20 10,0 C 97 % 1009,1 hPa 0,0 mm 0,0 km/h (0 Bft) O 279 0 min 0,000 mm 0 W/m 9,5 C 10,0 C 0,0 km/h (0 Bft)
19/05/2019 06:15 10,1 C 97 % 1009,2 hPa 0,0 mm 0,0 km/h (0 Bft) O 279 0 min 0,000 mm 0 W/m 9,6 C 10,1 C 0,0 km/h (0 Bft)
19/05/2019 06:10 10,1 C 97 % 1009,1 hPa 0,0 mm 0,0 km/h (0 Bft) O 281 0 min 0,000 mm 0 W/m 9,6 C 10,1 C 0,0 km/h (0 Bft)
19/05/2019 06:05 10,1 C 97 % 1009,1 hPa 0,0 mm 0,0 km/h (0 Bft) O 278 0 min 0,000 mm 0 W/m 9,6 C 10,1 C 0,0 km/h (0 Bft)
19/05/2019 06:00 10,1 C 97 % 1009,1 hPa 0,0 mm 0,0 km/h (0 Bft) O 279 0 min 0,000 mm 0 W/m 9,6 C 10,1 C 0,0 km/h (0 Bft)
19/05/2019 05:55 10,1 C 97 % 1009,2 hPa 0,0 mm 0,0 km/h (0 Bft) O 280 0 min 0,000 mm 0 W/m 9,6 C 10,1 C 0,0 km/h (0 Bft)
19/05/2019 05:50 10,1 C 97 % 1009,1 hPa 0,0 mm 0,0 km/h (0 Bft) O 279 0 min 0,000 mm 0 W/m 9,6 C 10,1 C 0,0 km/h (0 Bft)
19/05/2019 05:45 10,1 C 97 % 1009,1 hPa 0,0 mm 0,0 km/h (0 Bft) O 280 0 min 0,000 mm 0 W/m 9,6 C 10,1 C 0,0 km/h (0 Bft)
19/05/2019 05:40 10,1 C 97 % 1009,1 hPa 0,0 mm 0,0 km/h (0 Bft) O 280 0 min 0,000 mm 0 W/m 9,6 C 10,1 C 0,0 km/h (0 Bft)
19/05/2019 05:35 10,1 C 97 % 1008,9 hPa 0,0 mm 0,0 km/h (0 Bft) O 278 0 min 0,000 mm 0 W/m 9,6 C 10,1 C 0,0 km/h (0 Bft)
19/05/2019 05:30 10,1 C 97 % 1008,9 hPa 0,0 mm 0,0 km/h (0 Bft) O 280 0 min 0,000 mm 0 W/m 9,6 C 10,1 C 0,0 km/h (0 Bft)
19/05/2019 05:25 10,1 C 97 % 1008,9 hPa 0,0 mm 0,0 km/h (0 Bft) O 280 0 min 0,000 mm 0 W/m 9,6 C 10,1 C 0,0 km/h (0 Bft)
19/05/2019 05:20 10,2 C 97 % 1008,9 hPa 0,0 mm 0,0 km/h (0 Bft) O 279 0 min 0,000 mm 0 W/m 9,7 C 10,2 C 0,0 km/h (0 Bft)
19/05/2019 05:15 10,2 C 97 % 1008,9 hPa 0,0 mm 0,0 km/h (0 Bft) O 278 0 min 0,000 mm 0 W/m 9,7 C 10,2 C 0,0 km/h (0 Bft)
19/05/2019 05:10 10,2 C 97 % 1008,9 hPa 0,0 mm 0,0 km/h (0 Bft) O 280 0 min 0,000 mm 0 W/m 9,7 C 10,2 C 0,0 km/h (0 Bft)
19/05/2019 05:05 10,2 C 97 % 1009,0 hPa 0,0 mm 0,0 km/h (0 Bft) O 279 0 min 0,000 mm 0 W/m 9,7 C 10,2 C 0,0 km/h (0 Bft)
19/05/2019 05:00 10,1 C 97 % 1009,0 hPa 0,0 mm 0,4 km/h (0 Bft) O 279 0 min 0,000 mm 0 W/m 9,6 C 10,1 C 3,2 km/h (1 Bft)
19/05/2019 04:55 10,1 C 97 % 1009,0 hPa 0,0 mm 0,2 km/h (0 Bft) O 280 0 min 0,000 mm 0 W/m 9,6 C 10,1 C 1,6 km/h (1 Bft)
19/05/2019 04:50 10,2 C 97 % 1009,0 hPa 0,0 mm 0,5 km/h (0 Bft) O 280 0 min 0,000 mm 0 W/m 9,7 C 10,2 C 4,8 km/h (1 Bft)
19/05/2019 04:45 10,2 C 97 % 1009,1 hPa 0,0 mm 0,0 km/h (0 Bft) SO 235 0 min 0,000 mm 0 W/m 9,7 C 10,2 C 0,0 km/h (0 Bft)
19/05/2019 04:40 10,2 C 97 % 1009,1 hPa 0,0 mm 0,0 km/h (0 Bft) SO 234 0 min 0,000 mm 0 W/m 9,7 C 10,2 C 0,0 km/h (0 Bft)
19/05/2019 04:35 10,2 C 97 % 1009,1 hPa 0,0 mm 0,0 km/h (0 Bft) SO 236 0 min 0,000 mm 0 W/m 9,7 C 10,2 C 0,0 km/h (0 Bft)
19/05/2019 04:30 10,2 C 97 % 1009,1 hPa 0,0 mm 0,0 km/h (0 Bft) SO 236 0 min 0,000 mm 0 W/m 9,7 C 10,2 C 0,0 km/h (0 Bft)
19/05/2019 04:25 10,2 C 97 % 1009,0 hPa 0,0 mm 0,0 km/h (0 Bft) SO 235 0 min 0,000 mm 0 W/m 9,7 C 10,2 C 0,0 km/h (0 Bft)
19/05/2019 04:20 10,2 C 97 % 1009,1 hPa 0,0 mm 0,0 km/h (0 Bft) SO 235 0 min 0,000 mm 0 W/m 9,7 C 10,2 C 0,0 km/h (0 Bft)
19/05/2019 04:15 10,2 C 97 % 1009,1 hPa 0,0 mm 0,0 km/h (0 Bft) SO 236 0 min 0,000 mm 0 W/m 9,7 C 10,2 C 0,0 km/h (0 Bft)
19/05/2019 04:10 10,1 C 97 % 1009,0 hPa 0,0 mm 0,0 km/h (0 Bft) SO 235 0 min 0,000 mm 0 W/m 9,6 C 10,1 C 0,0 km/h (0 Bft)
19/05/2019 04:05 10,1 C 97 % 1009,0 hPa 0,0 mm 0,0 km/h (0 Bft) SO 234 0 min 0,000 mm 0 W/m 9,6 C 10,1 C 0,0 km/h (0 Bft)
19/05/2019 04:00 10,1 C 97 % 1009,0 hPa 0,0 mm 0,0 km/h (0 Bft) SO 236 0 min 0,000 mm 0 W/m 9,6 C 10,1 C 0,0 km/h (0 Bft)
19/05/2019 03:55 10,1 C 97 % 1009,1 hPa 0,0 mm 0,0 km/h (0 Bft) SO 236 0 min 0,000 mm 0 W/m 9,6 C 10,1 C 0,0 km/h (0 Bft)
19/05/2019 03:50 10,1 C 97 % 1009,0 hPa 0,0 mm 0,0 km/h (0 Bft) O-SO 237 0 min 0,000 mm 0 W/m 9,6 C 10,1 C 0,0 km/h (0 Bft)
19/05/2019 03:45 10,1 C 97 % 1009,0 hPa 0,0 mm 0,0 km/h (0 Bft) O-SO 237 0 min 0,000 mm 0 W/m 9,6 C 10,1 C 0,0 km/h (0 Bft)
19/05/2019 03:40 10,2 C 97 % 1009,0 hPa 0,0 mm 0,0 km/h (0 Bft) SO 235 0 min 0,000 mm 0 W/m 9,7 C 10,2 C 0,0 km/h (0 Bft)
19/05/2019 03:35 10,2 C 97 % 1009,1 hPa 0,0 mm 0,0 km/h (0 Bft) O-SO 238 0 min 0,000 mm 0 W/m 9,7 C 10,2 C 0,0 km/h (0 Bft)
19/05/2019 03:30 10,2 C 97 % 1009,1 hPa 0,0 mm 0,0 km/h (0 Bft) SO 236 0 min 0,000 mm 0 W/m 9,7 C 10,2 C 0,0 km/h (0 Bft)
19/05/2019 03:25 10,2 C 97 % 1009,1 hPa 0,0 mm 0,0 km/h (0 Bft) SO 236 0 min 0,000 mm 0 W/m 9,7 C 10,2 C 0,0 km/h (0 Bft)
19/05/2019 03:20 10,2 C 97 % 1009,1 hPa 0,0 mm 0,0 km/h (0 Bft) O-SO 237 0 min 0,000 mm 0 W/m 9,7 C 10,2 C 0,0 km/h (0 Bft)
19/05/2019 03:15 10,2 C 97 % 1009,2 hPa 0,0 mm 0,0 km/h (0 Bft) SO 236 0 min 0,000 mm 0 W/m 9,7 C 10,2 C 0,0 km/h (0 Bft)
19/05/2019 03:10 10,2 C 97 % 1009,2 hPa 0,0 mm 0,0 km/h (0 Bft) SO 235 0 min 0,000 mm 0 W/m 9,7 C 10,2 C 0,0 km/h (0 Bft)
19/05/2019 03:05 10,3 C 96 % 1009,2 hPa 0,0 mm 0,0 km/h (0 Bft) SO 236 0 min 0,000 mm 0 W/m 9,7 C 10,3 C 0,0 km/h (0 Bft)
19/05/2019 03:00 10,3 C 96 % 1009,2 hPa 0,0 mm 0,0 km/h (0 Bft) SO 236 0 min 0,000 mm 0 W/m 9,7 C 10,3 C 0,0 km/h (0 Bft)
19/05/2019 02:55 10,3 C 96 % 1009,2 hPa 0,0 mm 0,0 km/h (0 Bft) SO 236 0 min 0,000 mm 0 W/m 9,7 C 10,3 C 0,0 km/h (0 Bft)
19/05/2019 02:50 10,3 C 96 % 1009,1 hPa 0,0 mm 0,0 km/h (0 Bft) O-SO 237 0 min 0,000 mm 0 W/m 9,7 C 10,3 C 0,0 km/h (0 Bft)
19/05/2019 02:45 10,3 C 97 % 1009,2 hPa 0,0 mm 0,0 km/h (0 Bft) O-SO 237 0 min 0,000 mm 0 W/m 9,8 C 10,3 C 0,0 km/h (0 Bft)
19/05/2019 02:40 10,4 C 97 % 1009,3 hPa 0,0 mm 0,0 km/h (0 Bft) SO 235 0 min 0,000 mm 0 W/m 9,9 C 10,4 C 0,0 km/h (0 Bft)
19/05/2019 02:35 10,4 C 96 % 1009,3 hPa 0,0 mm 0,0 km/h (0 Bft) SO 236 0 min 0,000 mm 0 W/m 9,8 C 10,4 C 0,0 km/h (0 Bft)
19/05/2019 02:30 10,4 C 96 % 1009,3 hPa 0,0 mm 0,0 km/h (0 Bft) SO 236 0 min 0,000 mm 0 W/m 9,8 C 10,4 C 0,0 km/h (0 Bft)
19/05/2019 02:25 10,4 C 96 % 1009,3 hPa 0,0 mm 0,0 km/h (0 Bft) O-SO 237 0 min 0,000 mm 0 W/m 9,8 C 10,4 C 0,0 km/h (0 Bft)
19/05/2019 02:20 10,4 C 96 % 1009,3 hPa 0,0 mm 0,0 km/h (0 Bft) SO 236 0 min 0,000 mm 0 W/m 9,8 C 10,4 C 0,0 km/h (0 Bft)
19/05/2019 02:15 10,4 C 96 % 1009,4 hPa 0,0 mm 0,0 km/h (0 Bft) SO 235 0 min 0,000 mm 0 W/m 9,8 C 10,4 C 0,0 km/h (0 Bft)
19/05/2019 02:10 10,4 C 96 % 1009,4 hPa 0,0 mm 0,0 km/h (0 Bft) SO 236 0 min 0,000 mm 0 W/m 9,8 C 10,4 C 0,0 km/h (0 Bft)
19/05/2019 02:05 10,4 C 96 % 1009,5 hPa 0,0 mm 0,0 km/h (0 Bft) SO 235 0 min 0,000 mm 0 W/m 9,8 C 10,4 C 0,0 km/h (0 Bft)
19/05/2019 02:00 10,4 C 96 % 1009,5 hPa 0,0 mm 0,0 km/h (0 Bft) SO 236 0 min 0,000 mm 0 W/m 9,8 C 10,4 C 0,0 km/h (0 Bft)
19/05/2019 01:55 10,4 C 96 % 1009,5 hPa 0,0 mm 0,0 km/h (0 Bft) O-SO 237 0 min 0,000 mm 0 W/m 9,8 C 10,4 C 0,0 km/h (0 Bft)
19/05/2019 01:50 10,4 C 96 % 1009,5 hPa 0,0 mm 0,0 km/h (0 Bft) SO 236 0 min 0,000 mm 0 W/m 9,8 C 10,4 C 0,0 km/h (0 Bft)
19/05/2019 01:45 10,4 C 96 % 1009,5 hPa 0,0 mm 0,0 km/h (0 Bft) SO 236 0 min 0,000 mm 0 W/m 9,8 C 10,4 C 0,0 km/h (0 Bft)
19/05/2019 01:40 10,4 C 96 % 1009,7 hPa 0,2 mm 0,0 km/h (0 Bft) O-SO 237 0 min 0,000 mm 0 W/m 9,8 C 10,4 C 0,0 km/h (0 Bft)
19/05/2019 01:35 10,4 C 96 % 1009,7 hPa 0,0 mm 0,0 km/h (0 Bft) SO 235 0 min 0,000 mm 0 W/m 9,8 C 10,4 C 0,0 km/h (0 Bft)
19/05/2019 01:30 10,5 C 96 % 1009,7 hPa 0,0 mm 0,0 km/h (0 Bft) SO 236 0 min 0,000 mm 0 W/m 9,9 C 10,5 C 0,0 km/h (0 Bft)
19/05/2019 01:25 10,5 C 96 % 1009,7 hPa 0,0 mm 0,0 km/h (0 Bft) SO 236 0 min 0,000 mm 0 W/m 9,9 C 10,5 C 0,0 km/h (0 Bft)
19/05/2019 01:20 10,6 C 96 % 1009,7 hPa 0,2 mm 0,0 km/h (0 Bft) SO 235 0 min 0,000 mm 0 W/m 10,0 C 10,6 C 0,0 km/h (0 Bft)
19/05/2019 01:15 10,6 C 96 % 1009,7 hPa 0,0 mm 0,0 km/h (0 Bft) O-SO 237 0 min 0,000 mm 0 W/m 10,0 C 10,6 C 0,0 km/h (0 Bft)
19/05/2019 01:10 10,6 C 96 % 1009,7 hPa 0,2 mm 0,0 km/h (0 Bft) O 272 0 min 0,000 mm 0 W/m 10,0 C 10,6 C 0,0 km/h (0 Bft)
19/05/2019 01:05 10,6 C 95 % 1009,7 hPa 0,0 mm 0,0 km/h (0 Bft) O 276 0 min 0,000 mm 0 W/m 9,8 C 10,6 C 0,0 km/h (0 Bft)
19/05/2019 01:00 10,6 C 95 % 1009,7 hPa 0,2 mm 0,1 km/h (0 Bft) O 276 0 min 0,000 mm 0 W/m 9,8 C 10,6 C 3,2 km/h (1 Bft)
19/05/2019 00:55 10,6 C 95 % 1009,6 hPa 0,2 mm 0,9 km/h (0 Bft) O-SO 240 0 min 0,000 mm 0 W/m 9,8 C 10,6 C 9,7 km/h (2 Bft)
19/05/2019 00:50 10,6 C 95 % 1009,6 hPa 0,0 mm 2,0 km/h (1 Bft) S-SO 210 0 min 0,000 mm 0 W/m 9,8 C 10,6 C 9,7 km/h (2 Bft)
19/05/2019 00:45 10,5 C 95 % 1009,6 hPa 0,0 mm 5,3 km/h (1 Bft) O-SO 245 0 min 0,000 mm 0 W/m 9,7 C 10,5 C 11,3 km/h (2 Bft)
19/05/2019 00:40 10,6 C 95 % 1009,6 hPa 0,0 mm 4,4 km/h (1 Bft) O-SO 243 0 min 0,000 mm 0 W/m 9,8 C 10,6 C 9,7 km/h (2 Bft)
19/05/2019 00:35 10,6 C 95 % 1009,6 hPa 0,0 mm 2,3 km/h (1 Bft) SO 222 0 min 0,000 mm 0 W/m 9,8 C 10,6 C 8,0 km/h (2 Bft)
19/05/2019 00:30 10,6 C 95 % 1009,6 hPa 0,0 mm 2,7 km/h (1 Bft) SO 233 0 min 0,000 mm 0 W/m 9,8 C 10,6 C 9,7 km/h (2 Bft)
19/05/2019 00:25 10,6 C 95 % 1009,6 hPa 0,0 mm 1,2 km/h (1 Bft) SO 231 0 min 0,000 mm 0 W/m 9,8 C 10,6 C 6,4 km/h (2 Bft)
19/05/2019 00:20 10,7 C 95 % 1009,6 hPa 0,0 mm 0,3 km/h (0 Bft) SO 226 0 min 0,000 mm 0 W/m 9,9 C 10,7 C 3,2 km/h (1 Bft)
19/05/2019 00:15 10,7 C 95 % 1009,7 hPa 0,0 mm 0,3 km/h (0 Bft) SO 235 0 min 0,000 mm 0 W/m 9,9 C 10,7 C 3,2 km/h (1 Bft)
19/05/2019 00:10 10,7 C 95 % 1009,7 hPa 0,0 mm 2,1 km/h (1 Bft) SO 225 0 min 0,000 mm 0 W/m 9,9 C 10,7 C 8,0 km/h (2 Bft)
19/05/2019 00:05 10,7 C 95 % 1009,6 hPa 0,0 mm 1,4 km/h (1 Bft) S-SO 210 0 min 0,000 mm 0 W/m 9,9 C 10,7 C 8,0 km/h (2 Bft)
19/05/2019 00:00 10,7 C 95 % 1009,6 hPa 0,0 mm 2,3 km/h (1 Bft) SO 226 0 min 0,000 mm 0 W/m 9,9 C 10,7 C 8,0 km/h (2 Bft)
_ Min-Heure 06:20 15:25 05:10 - 01:05 - - - - - 06:20 06:20 01:05
Minimum _ 10,0 C 73 % 1008,9 hPa - 0,0 km/h (0 Bft) - - - - - 9,5 C 10,0 C 0,0 km/h (0 Bft)
_ Max-Heure 15:20 06:30 23:00 16:00 18:35 - - 12:20 14:00 14:10 19:15 15:20 15:30
Maximum _ 16,1 C 98 % 1012,8 hPa 0,6 mm 7,5 km/h
O-SO (2 Bft)
- - 5 min 0,331 mm 1109 W/m 13,0 C 16,1 C 32,2 km/h
N (5 Bft)
Moyenne _ 11,8 C 93 % 1010,1 hPa #4,2 mm 1,6 km/h (1 Bft) O-NO - #55 min. #1,321 mm 176 W/m 10,7 C 11,8 C 5,5 km/h (1 Bft)